Weather in Sotnikovo

Russia / Lipetsk Oblast     52°58′32″N   38°42′16″E
temp.,
°C
wind,
m/s
gust,
m/s
humid.,
%
clouds,
%
prec.,
mm/h
press.,
hPa
HPBL,
m
17 april, sat
sat1700:00+10wnw22746 0.0 101814
03:00+9nne12765 0.0 101818
06:00+9nne3375100 0.0 101863
09:00+11ese3676100 0.1 1017486
12:00+10ese2377100 1.1 1017422
15:00+8sse4691100 7.3 1018384
18:00+8sw3485100 1.4 1017419
21:00+7wsw3588100 1.7 1017259
18 april, sun
sun1800:00+6wsw2390100 0.0 101894
03:00+5s11915 0.0 101810
06:00+4ese119244 0.0 101810
09:00+6s2387100 0.4 1019283
12:00+10sse345898 0.3 10181528
15:00+11sse3556100 0.5 10191397
18:00+10se3461100 0.1 1018505
21:00+8ese3673100 0.1 1019124
19 april, mon
mon1900:00+8e3777100 0.0 1019172
03:00+7e2283100 0.0 101936
06:00+7ene3684100 0.0 1018156
09:00+8se3585100 1.1 1018352
12:00+10ene4570100 1.3 1018953
15:00+10ene7776100 3.6 1018834
18:00+8ene71286100 2.2 1017812
21:00+5ene61195100 21.4 1019798
20 april, tue
tue2000:00+6e61193100 3.9 1018539
03:00+5e6129398 4.1 1018469
06:00+5e61197100 0.1 1017416
09:00+7e7139299 0.3 1017632
12:00+8e91386100 0.1 1017728
15:00+6e91689100 0.2 1013823
18:00+5e112093100 6.8 1009947
21:00+7e122492100 21.0 10051450
21 april, wed
wed2100:00+7ese122290100 3.7 10021123
03:00+9se91592100 4.0 1001827
06:00+8sse91489100 0.8 10011208
09:00+8s91592100 1.7 10021402
12:00+6ssw101589100 0.6 10051227
15:00+7sw91482100 0.7 10091248
18:00+7sw71283100 0.0 1013902
21:00+6ssw51082100 0.1 1017384